Froy Multi — LG9456 — position and weather

sailwx.info

Track history (hours):
 
Tides and Currents Weather Stations Pressure Air Temp Water Temp Dewpoint Dewpoint Depression Visibility Wind Speed Wind Dir Waves Ship Positions

Froy Multi

Last reported at 2018-May-18 18:42 UTC. Time now 2018-Jun-18 09:13 UTC.
Position N 69°50' E 018°59'.
Warning: this ship's position is 30 days out of date.

Length 15 m.

MMSI: 257956500.

Date/timePositionNaut miles runAvg speedWind from/ knotsBaromVisibWave heightAir tempDewpointWater temp
2018-May-18 18:42N 69°50' E 018°59'210.3
2018-May-18 18:30N 69°48' E 019°02'4 8.5
2018-May-18 18:00N 69°44' E 019°03'4 8.1
2018-May-18 17:28N 69°40' E 018°59'0 1.1
2018-May-18 17:00N 69°39' E 018°58'1 1.2
2018-May-18 16:30N 69°39' E 018°57'0 0.0
2018-May-18 16:00N 69°39' E 018°57'0 0.0
2018-May-18 15:30N 69°39' E 018°57'0 0.0
2018-May-18 15:00N 69°39' E 018°57'1 1.7
2018-May-18 14:28N 69°39' E 018°59'4 7.9
2018-May-18 14:00N 69°43' E 019°03'4 7.4
2018-May-18 13:30N 69°46' E 019°08'4 7.2
2018-May-18 13:00N 69°47' E 019°18'  
2018-May-15 11:22N 69°48' E 019°28'3 8.5
2018-May-15 11:00N 69°47' E 019°20'4 8.4
2018-May-15 10:30N 69°45' E 019°09'4 7.6
2018-May-15 10:00N 69°42' E 019°03'4 7.7
2018-May-15 09:30N 69°39' E 018°58'0 0.4
2018-May-15 09:00N 69°39' E 018°58'0 0.7
2018-May-15 08:30N 69°39' E 018°57'0 0.0
2018-May-15 08:00N 69°39' E 018°57'0 0.0
2018-May-15 07:29N 69°39' E 018°57'0 0.0
2018-May-15 07:00N 69°39' E 018°57'0 0.0
2018-May-15 06:30N 69°39' E 018°57'0 0.0
2018-May-15 06:00N 69°39' E 018°57'0 0.0
2018-May-15 05:30N 69°39' E 018°57'0 0.0
2018-May-15 05:00N 69°39' E 018°57'0 0.0
2018-May-15 04:30N 69°39' E 018°57'0 0.0
2018-May-15 04:00N 69°39' E 018°57'0 0.0
2018-May-15 03:30N 69°39' E 018°57'0 0.0
2018-May-15 03:00N 69°39' E 018°57'0 0.0
2018-May-15 02:30N 69°39' E 018°57'0 0.0
2018-May-15 02:00N 69°39' E 018°57'0 0.0
2018-May-15 01:30N 69°39' E 018°57'0 0.0
2018-May-15 01:00N 69°39' E 018°57'0 0.0
2018-May-15 00:30N 69°39' E 018°57'0 0.0
2018-May-15 00:00N 69°39' E 018°57'0 0.0
2018-May-14 23:30N 69°39' E 018°57'0 0.0
2018-May-14 23:00N 69°39' E 018°57'0 0.0
2018-May-14 22:30N 69°39' E 018°57'0 0.0
2018-May-14 22:00N 69°39' E 018°57'0 0.0
2018-May-14 21:30N 69°39' E 018°57'0 0.0
2018-May-14 20:59N 69°39' E 018°57'0 0.0
2018-May-14 20:30N 69°39' E 018°57'0 0.0
2018-May-14 20:00N 69°39' E 018°57'0 0.0
2018-May-14 19:30N 69°39' E 018°57'0 0.0
2018-May-14 19:00N 69°39' E 018°57'0 0.0
2018-May-14 18:30N 69°39' E 018°57'0 0.0
2018-May-14 18:00N 69°39' E 018°57'0 0.0
2018-May-14 17:30N 69°39' E 018°57'0 0.0
2018-May-14 17:00N 69°39' E 018°57'0 0.0
2018-May-14 16:30N 69°39' E 018°57'0 0.0
2018-May-14 16:00N 69°39' E 018°57'1 1.0
2018-May-14 15:30N 69°39' E 018°59'4 7.5
2018-May-14 15:00N 69°36' E 018°52'3 6.6
2018-May-14 14:30N 69°33' E 018°45'3 5.2
2018-May-14 14:00N 69°33' E 018°38'4 7.9
2018-May-14 13:30N 69°31' E 018°28'4 7.9
2018-May-14 12:59N 69°30' E 018°17'4 7.8
2018-May-14 12:29N 69°28' E 018°08'18 6.0
2018-May-14 09:29N 69°10' E 017°57'4 7.7
2018-May-14 09:00N 69°09' E 017°47'2 4.8
2018-May-14 08:30N 69°09' E 017°40'4 7.7
2018-May-14 08:00N 69°07' E 017°31'6 8.0
2018-May-14 07:12N 69°02' E 017°19'2 7.6
2018-May-14 07:00N 69°01' E 017°16'  
Track history (hours):
 
Tides and Currents Weather Stations Pressure Air Temp Water Temp Dewpoint Dewpoint Depression Visibility Wind Speed Wind Dir Waves Ship Positions

Froy Multi

Last reported at 2018-May-18 18:42 UTC. Time now 2018-Jun-18 09:13 UTC.
Position N 69°50' E 018°59'.
Warning: this ship's position is 30 days out of date.

Length 15 m.

MMSI: 257956500.

Date/timePositionNaut miles runAvg speedWind from/ knotsBaromVisibWave heightAir tempDewpointWater temp
2018-May-18 18:42N 69°50' E 018°59'210.3
2018-May-18 18:30N 69°48' E 019°02'4 8.5
2018-May-18 18:00N 69°44' E 019°03'4 8.1
2018-May-18 17:28N 69°40' E 018°59'0 1.1
2018-May-18 17:00N 69°39' E 018°58'1 1.2
2018-May-18 16:30N 69°39' E 018°57'0 0.0
2018-May-18 16:00N 69°39' E 018°57'0 0.0
2018-May-18 15:30N 69°39' E 018°57'0 0.0
2018-May-18 15:00N 69°39' E 018°57'1 1.7
2018-May-18 14:28N 69°39' E 018°59'4 7.9
2018-May-18 14:00N 69°43' E 019°03'4 7.4
2018-May-18 13:30N 69°46' E 019°08'4 7.2
2018-May-18 13:00N 69°47' E 019°18'  
2018-May-15 11:22N 69°48' E 019°28'3 8.5
2018-May-15 11:00N 69°47' E 019°20'4 8.4
2018-May-15 10:30N 69°45' E 019°09'4 7.6
2018-May-15 10:00N 69°42' E 019°03'4 7.7
2018-May-15 09:30N 69°39' E 018°58'0 0.4
2018-May-15 09:00N 69°39' E 018°58'0 0.7
2018-May-15 08:30N 69°39' E 018°57'0 0.0
2018-May-15 08:00N 69°39' E 018°57'0 0.0
2018-May-15 07:29N 69°39' E 018°57'0 0.0
2018-May-15 07:00N 69°39' E 018°57'0 0.0
2018-May-15 06:30N 69°39' E 018°57'0 0.0
2018-May-15 06:00N 69°39' E 018°57'0 0.0
2018-May-15 05:30N 69°39' E 018°57'0 0.0
2018-May-15 05:00N 69°39' E 018°57'0 0.0
2018-May-15 04:30N 69°39' E 018°57'0 0.0
2018-May-15 04:00N 69°39' E 018°57'0 0.0
2018-May-15 03:30N 69°39' E 018°57'0 0.0
2018-May-15 03:00N 69°39' E 018°57'0 0.0
2018-May-15 02:30N 69°39' E 018°57'0 0.0
2018-May-15 02:00N 69°39' E 018°57'0 0.0
2018-May-15 01:30N 69°39' E 018°57'0 0.0
2018-May-15 01:00N 69°39' E 018°57'0 0.0
2018-May-15 00:30N 69°39' E 018°57'0 0.0
2018-May-15 00:00N 69°39' E 018°57'0 0.0
2018-May-14 23:30N 69°39' E 018°57'0 0.0
2018-May-14 23:00N 69°39' E 018°57'0 0.0
2018-May-14 22:30N 69°39' E 018°57'0 0.0
2018-May-14 22:00N 69°39' E 018°57'0 0.0
2018-May-14 21:30N 69°39' E 018°57'0 0.0
2018-May-14 20:59N 69°39' E 018°57'0 0.0
2018-May-14 20:30N 69°39' E 018°57'0 0.0
2018-May-14 20:00N 69°39' E 018°57'0 0.0
2018-May-14 19:30N 69°39' E 018°57'0 0.0
2018-May-14 19:00N 69°39' E 018°57'0 0.0
2018-May-14 18:30N 69°39' E 018°57'0 0.0
2018-May-14 18:00N 69°39' E 018°57'0 0.0
2018-May-14 17:30N 69°39' E 018°57'0 0.0
2018-May-14 17:00N 69°39' E 018°57'0 0.0
2018-May-14 16:30N 69°39' E 018°57'0 0.0
2018-May-14 16:00N 69°39' E 018°57'1 1.0
2018-May-14 15:30N 69°39' E 018°59'4 7.5
2018-May-14 15:00N 69°36' E 018°52'3 6.6
2018-May-14 14:30N 69°33' E 018°45'3 5.2
2018-May-14 14:00N 69°33' E 018°38'4 7.9
2018-May-14 13:30N 69°31' E 018°28'4 7.9
2018-May-14 12:59N 69°30' E 018°17'4 7.8
2018-May-14 12:29N 69°28' E 018°08'18 6.0
2018-May-14 09:29N 69°10' E 017°57'4 7.7
2018-May-14 09:00N 69°09' E 017°47'2 4.8
2018-May-14 08:30N 69°09' E 017°40'4 7.7
2018-May-14 08:00N 69°07' E 017°31'6 8.0
2018-May-14 07:12N 69°02' E 017°19'2 7.6
2018-May-14 07:00N 69°01' E 017°16'  

Dump ship's entire track history